Weather in Karaga

Russia / Kamchatka Krai     59°06′34″N   163°07′10″E
temp.,
°C
wind,
m/s
gust,
m/s
humid.,
%
clouds,
%
prec.,
mm/h
press.,
hPa
HPBL,
m
28 february, sun
sun2800:00−25nne449183 0.0 102261
03:00−26nne469190 0.0 102278
06:00−25nne569293 0.0 102094
09:00−22nne6997100 0.1 1020188
12:00−18nne81094100 0.2 1017320
15:00−16n101489100 0.1 1014386
18:00−15nne111792100 0.4 1011478
21:00−16nne121889100 0.3 1009534
1 march, mon
mon100:00−15nne121984100 0.3 1004669
03:00−14nne121993100 0.9 1000792
06:00−15n121993100 2.3 998563
09:00−16n111893100 1.4 997516
12:00−15n91393100 2.2 996414
15:00−17nne5796100 0.7 996281
18:00−18ne4585100 1.1 996226
21:00−19nne4696100 0.3 998313
2 march, tue
tue200:00−20nne3488100 0.4 1000193
03:00−22nnw4581100 0.0 1003105
06:00−23nnw347895 0.0 100522
09:00−21n3378100 0.0 100959
12:00−19n2370100 0.0 1012249
15:00−17n1264100 0.0 1015478
18:00−17sse1180100 0.0 101823
21:00−18wsw1190100 0.0 102120
3 march, wed
wed300:00−18w2295100 0.1 102437
03:00−21wnw119669 0.1 102520
06:00−23wnw119034 0.1 102720
09:00−22nw118394 0.0 102720
12:00−18nne228097 0.0 1025116
15:00−16nne5694100 0.1 1020261
18:00−13n6698100 2.2 1011191
21:00−3e101895100 4.8 1000840
4 march, thu
thu400:00+1se162497100 8.7 988772
03:00+2sse172697100 5.7 978866
06:00+2sse172791100 6.8 9701085
09:00−6s101581100 0.5 972444
12:00−12wsw10236465 0.7 977923
15:00−12wsw17265932 0.0 9831488
18:00−14sw11206749 0.0 987920
21:00−15sw9157329 0.0 990258